TITAN 3C TRANSTAGE R/B, 2222

Orbit data source: Space-Track

TITAN 3C TRANSTAGE R/B, 2222 is space debris in GEO originally from a launch on Thu, 16 Jun 1966 UTC launched from the Air Force Eastern Test Range (AFETR). Debris objects in space refer to the collection of defunct objects orbiting the Earth. Examples of debris include non-operational satellites, rocket bodies, and fragments generated from explosions, collisions, or faulty payload assembly.

Not visible in the next 10 days
Identifier
2222, 1966-053J
Orbit
GEO
Country
Flag of USUS
Related business
Manufacturer
Martin Marietta
Mission
Spacecraft
Bus & Motor
TRANSTAGE, Unknown motor
Mass
2,050 kg wet, 2,050 kg dry
Launch date (UTC)
1966-06-16 (60 years ago)
Launch vehicle
Unknown
Launch site
Air Force Eastern Test Range (AFETR)
Object type
Payload
Rocket body
Debris
Shape & HBR
Unknown
Radar Cross Section
Large (>1 m²)

Expand to show TLE details & history
Last TLE update: 11 hours ago

TLE from 11 hours ago
0 TITAN 3C TRANSTAGE R/B
1 02222U 66053J   26073.83345716 -.00000082  00000-0  00000-0 0  9994
2 02222   8.2266  48.8142 0164350 168.4606  35.5855  1.06721123129377
Epoch: 2026-03-14T20:00Z
TLE epoch observation values (Epoch: 2026-03-14T20:00:10.698Z)
Latitude
-3.47616°
Longitude
141.27282°
Altitude
33,535.591 km
Speed
3.181 km/s
True Right ascension
16h 55m 03s
True Declination
-3° 28' 21"
Sunlit
Object was in daylight at epoch
Visualization orbit readout
Latitude
Unknown
Longitude
Unknown
Altitude
Unknown
Speed
Unknown
Apparent Right ascension
Unknown
Apparent Declination
Unknown
Sunlit
N/A
Visualization observer readout
Local Sidereal Time
11:46:07
Azimuth
Unknown
Elevation
Unknown
Doppler factor
Unknown
Orbital elements
Apogee altitude
34,736.153 km
Perigee altitude
33,406.578 km
Semi-major axis
40,449.503 km
Eccentricity
0.01644
Inclination
8.2266°
RAAN
48.8142°
Arg. of periapsis
168.4606°
True anomaly
36.69997°
Mean anomaly
35.5855°
Eccentric anomaly
36.14086°
Mean motion
0.26679 °/min
Orbital period
1,349.36 mins
BSTAR
0
Loading maneuver chart data...
Computing Atmospheric mass density...
Loading historical data...
Loading historical data...
Loading historical data...
Loading historical data...
Loading historical data...
Loading historical data...
Loading historical data...

Documentation

Showing up to 5 results
|